Location: Newark
(35.6799°N, 139.7636°E)
Time: 06:14:30
(UTC+00:00)

Courier 1B Rocket - Pass Details

Date: 18 December 2019
Orbit: 920 x 1202 km, 28.2° (Epoch: 20 January)

Event Time Altitude Azimuth Distance (km) Brightness Sun altitude
Exits shadow 18:09:35 29° 123° (ESE) 1,915 6.8 -42.9°
Drops below altitude 10° 18:13:23 10° 102° (ESE) 2,947 8.1 -42.1°
Sets 18:16:12 0° 95° (E) 3,861 9.0 -41.5°
